SCP
0 0 -0 0 0 0 -0 -0 0 0 0 0 0 0 0 0 0 0 0 0 0 -0 -0 0 -0 -0 -0 0 -0 -0 0 0 0 -0 -0 -0 0 0 0 0 0 -0 -0
-0 0 -0 0 0 0 -0 0 0 0 0 0 0 0 0 0 0 0 0 0 0 0 -0 0 0 0 -0 -0 0 -0 -0 -0 -0 -0 -0 -0 0 0 0 0 -0 -0 -0
-0 -0 0 0 0 0 -0 0 0 0 0 0 0 0 0 0 0 0 0 0 0 0 0 0 0 -0 -0 -0 -0 0 -0 -0 -0 0 0 -0 0 0 0 -0 -0 -0 0
-0 0 0 0 0 0 -0 0 0 0 0 0 0 0 0 0 0 0 0 0 -0 0 0 0 0 -0 -0 -0 -0 -0 -0 -0 0 -0 0 -0 -0 0 0 0 0 0 -0
0 -0 -0 -0 0 0 0 0 0 0 0 0 0 0 0 0 -0 0 0 0 0 0 0 0 -0 -0 -0 -0 -0 -0 0 0 0 0 -0 0 0 -0 0 0 0 0 0
0 -0 -0 0 0 0 0 0 0 0 0 0 0 0 -0 0 0 0 0 0 0 0 0 -0 -0 -0 -0 -0 -0 -0 0 0 0 0 0 -0 -0 -0 0 0 0 -0 -0
-0 -0 0 -0 0 -0 0 0 0 0 0 0 0 0 0 0 0 0 0 0 0 0 0 -0 -0 -0 -0 -0 -0 0 0 0 0 0 -0 -0 -0 0 -0 0 -0 -0 -0
0 -0 0 0 -0 0 0 -0 0 0 -0 -0 -0 0 0 0 0 -0 -0 0 -0 -0 -0 -0 -0 -0 -0 -0 -0 -0 0 -0 -0 -0 -0 -0 -0 0 0 0 0 -0 -0
0 0 0 0 0 -0 -0 0 0 0 0 0 0 0 0 -0 -0 -0 -0 -0 -0 -0 -0 -0 -0 -0 -0 -0 -0 -0 0 -0 -0 0 -0 -0 -0 -0 -0 -0 -0 -0 -0
0 0 0 0 -0 -0 -0 0 0 0 0 0 -0 0 0 -0 -0 -0 -0 -0 -0 -0 -0 -0 -0 -0 -0 -0 -0 -0 0 -0 0 0 -0 -0 -0 -0 -0 -0 -0 0 0
0 0 0 0 0 0 0 0 -0 0 0 0 -0 0 -0 -0 -0 -0 -0 -0 -0 -0 -0 -0 -0 -0 -0 -0 -0 -0 -0 -0 -0 -0 -0 -0 -0 -0 -0 -0 -0 -0 0
0 0 0 0 0 0 0 0 0 0 0 0 0 0 -0 -0 -0 -0 -0 -0 -0 -0 -0 -0 -0 -0 -0 0 0 0 0 -0 -0 -0 -0 -0 -0 -0 -0 -0 -0 -0 -0
0 -0 0 0 0 0 0 -0 0 -0 0 0 -0 0 0 0 0 -0 -0 -0 0 -0 -0 -0 -0 -0 -0 -0 0 -0 0 -0 -0 0 -0 -0 -0 -0 -0 -0 -0 -0 -0
0 0 0 0 0 0 0 0 0 0 0 0 0 -0 0 -0 0 -0 -0 0 0 0 -0 -0 0 0 0 -0 -0 0 0 -0 -0 -0 -0 -0 -0 0 0 0 0 0 -0
0 0 0 0 0 0 0 0 0 0 -0 0 -0 -0 -0 0 0 0 0 -0 0 -0 -0 0 0 -0 -0 -0 0 -0 -0 -0 -0 -0 -0 -0 -0 -0 0 -0 0 0 -0
0 -0 0 0 0 0 0 0 0 0 0 -0 0 -0 -0 -0 0 -0 0 0 0 0 -0 -0 0 -0 -0 0 0 -0 -0 -0 -0 -0 0 0 -0 -0 -0 0 0 0 0
0 0 0 0 -0 0 0 0 -0 -0 -0 0 0 0 -0 0 -0 -0 0 0 -0 0 -0 0 0 -0 0 0 0 -0 -0 -0 0 -0 -0 0 0 0 -0 -0 -0 -0 0
0 -0 0 0 0 0 0 -0 -0 -0 0 0 0 0 -0 -0 -0 -0 0 0 -0 -0 0 -0 -0 0 0 -0 -0 0 -0 0 -0 -0 -0 0 0 0 0 0 0 0 -0
0 -0 -0 0 0 0 -0 -0 -0 0 0 -0 0 0 -0 -0 -0 -0 0 0 0 0 0 0 -0 0 0 -0 -0 0 0 0 -0 -0 0 -0 -0 -0 0 -0 -0 0 -0
-0 -0 0 0 0 -0 -0 -0 -0 0 0 0 0 0 -0 0 0 0 0 0 0 0 0 0 0 0 0 0 0 -0 0 -0 -0 -0 -0 -0 -0 -0 -0 -0 -0 -0 -0
-0 0 0 -0 0 0 -0 -0 0 0 0 0 0 -0 0 0 0 0 0 0 0 -0 -0 -0 0 0 0 0 0 0 -0 -0 -0 -0 -0 -0 -0 -0 -0 -0 -0 -0 -0
0 0 -0 0 -0 0 0 0 -0 0 -0 0 -0 -0 0 0 0 0 0 0 0 0 0 -0 0 0 0 0 0 0 0 -0 -0 -0 0 -0 -0 -0 -0 -0 -0 -0 -0
0 0 -0 -0 0 0 0 -0 0 0 0 0 0 0 0 0 0 0 0 0 0 0 0 0 0 -0 0 0 0 0 0 0 0 -0 -0 0 -0 0 0 0 -0 -0 -0
-0 -0 -0 -0 -0 0 0 0 0 0 0 0 0 0 0 0 0 0 0 0 0 0 0 -0 0 0 0 0 0 0 0 0 0 0 0 -0 -0 -0 -0 -0 0 -0 -0
-0 -0 -0 -0 -0 -0 -0 0 -0 -0 -0 0 0 0 0 0 0 0 0 0 0 0 0 0 0 0 0 0 0 0 0 0 0 0 0 0 0 0 0 -0 -0 -0 0
-0 -0 -0 -0 -1 -0 -0 -0 -0 0 0 -0 0 0 0 0 0 -0 -0 0 0 0 1 1 0 0 0 0 0 0 0 0 0 0 0 -0 -0 -0 -0 -0 -0 -0 -0
Wind_Speed_500mb
33 36 34 34 32 29 27 25 23 20 19 17 16 15 16 17 18 20 22 20 15 17 20 23 27 31 33 36 38 40 41 41 41 41 41 42 42 42 43 44 34 35 38
41 36 37 34 32 31 28 26 21 17 15 14 13 11 13 14 14 19 20 20 21 19 21 26 31 32 32 33 35 36 38 37 36 35 37 38 42 39 39 43 30 35 33
41 39 37 32 30 28 26 24 19 14 15 12 9 9 10 12 16 19 19 22 24 24 27 33 34 34 33 32 34 34 36 42 47 50 46 28 29 31 30 28 29 32 30
40 36 32 31 28 26 25 23 20 16 14 10 9 10 12 14 18 19 22 27 28 27 36 37 33 30 31 31 32 35 38 47 39 36 26 25 24 26 25 26 28 28 29
39 34 31 30 28 28 26 22 20 15 13 9 10 12 11 13 21 25 28 31 30 32 37 36 33 34 33 30 30 33 40 41 33 36 26 24 22 23 24 26 25 29 29
40 36 34 33 30 28 24 21 19 16 15 11 14 17 17 25 33 30 30 30 30 32 34 34 32 30 29 29 30 34 40 39 32 21 26 28 22 26 26 24 22 22 23
43 29 33 34 30 29 24 22 19 18 17 16 19 23 32 39 39 34 32 28 28 27 30 30 30 29 27 26 28 32 38 34 23 26 24 17 19 21 21 20 20 20 21
39 33 31 34 28 28 24 20 18 18 17 18 21 24 31 36 36 33 30 27 25 26 27 28 26 25 26 24 24 27 39 34 22 23 26 18 20 20 19 20 20 20 18
35 37 30 29 29 26 26 20 19 15 19 17 19 22 25 28 29 28 29 26 24 26 25 24 24 22 26 25 18 24 34 39 20 26 18 20 23 21 18 19 20 19 18
37 37 33 27 25 21 19 18 16 15 17 17 16 17 19 20 20 22 21 21 22 23 23 22 23 24 28 32 26 23 35 34 22 28 21 18 22 21 20 19 17 17 19
37 39 36 27 33 21 17 13 11 12 14 14 14 21 20 17 17 14 22 15 17 20 21 17 16 20 17 34 32 34 29 21 18 21 20 22 23 21 19 18 16 16 16
53 40 37 33 31 23 20 7 11 1 8 5 7 13 3 8 16 25 12 13 13 14 14 11 11 18 12 33 34 35 33 17 21 17 15 24 24 22 19 16 16 14 15
43 38 37 30 29 22 22 12 7 9 6 6 6 13 8 12 12 12 10 10 8 11 13 9 8 8 7 16 22 33 28 22 22 27 17 21 22 22 20 18 16 13 13
47 37 43 28 23 25 17 14 9 9 8 5 5 13 20 17 15 14 11 16 15 10 14 8 7 5 9 10 16 19 20 23 17 14 17 17 14 20 20 15 13 12 12
41 39 35 31 30 22 21 12 12 9 6 7 7 12 9 16 16 15 18 14 14 19 7 9 7 4 9 19 32 25 24 22 17 15 21 21 12 15 16 14 10 10 12
41 38 37 32 32 25 22 16 12 10 8 9 9 12 14 18 20 22 21 18 16 13 21 10 13 9 14 14 23 14 14 18 14 16 12 19 14 14 20 15 9 8 12
47 37 33 28 25 31 27 19 15 13 10 15 9 16 15 15 16 21 25 23 17 15 19 9 16 13 15 12 18 16 17 12 20 14 18 11 16 12 10 12 14 17 17
57 40 33 27 29 26 23 22 14 14 17 17 10 13 9 12 12 14 15 18 23 22 18 25 17 17 16 18 18 19 17 20 19 18 14 12 10 8 12 9 15 21 21
47 49 39 38 28 33 17 18 19 17 19 16 13 12 18 12 14 13 13 19 14 26 29 22 24 23 18 20 19 17 17 20 14 22 22 9 17 6 11 9 16 20 23
46 50 47 40 37 18 25 28 22 19 16 16 14 14 12 18 18 14 14 12 16 21 28 22 26 22 18 19 17 20 16 17 11 7 22 18 13 11 14 10 10 17 22
62 56 46 46 35 38 31 26 25 21 19 18 18 16 17 14 13 14 10 12 12 15 18 31 24 23 21 14 18 19 18 16 15 17 15 16 22 18 11 22 11 17 13
61 55 52 45 36 33 26 25 24 21 18 18 18 20 22 20 14 12 14 16 7 17 15 23 29 30 27 25 19 17 20 27 24 19 22 22 19 19 20 18 26 22 14
66 57 52 43 39 37 35 27 24 23 25 18 22 22 25 24 18 20 19 17 18 9 16 21 29 30 27 32 25 16 14 16 29 24 23 21 24 22 28 28 23 25 20
63 57 55 48 43 41 39 35 34 29 25 22 20 20 20 24 22 24 21 20 20 19 15 17 23 28 29 33 23 22 24 8 9 21 24 26 22 24 23 27 27 31 24
60 60 57 54 51 48 45 45 39 38 30 26 25 20 26 23 25 25 29 24 24 20 17 14 18 21 26 23 22 24 23 13 5 8 15 26 29 26 26 29 26 28 28
58 59 58 56 58 54 52 48 53 43 37 33 26 26 22 22 23 28 29 31 26 25 20 21 21 25 31 31 27 21 24 22 19 16 16 20 25 25 27 30 27 27 27
Wind_Direction_500mb
150 145 137 143 148 151 151 142 135 126 108 97 99 105 111 117 118 111 104 99 107 108 108 115 109 101 97 101 103 106 105 104 105 106 106 106 104 101 97 86 100 106 103
150 146 140 138 139 143 142 148 137 124 106 96 96 107 122 133 134 119 111 106 106 109 122 123 117 109 104 105 106 110 109 107 104 104 106 109 109 106 107 123 130 111 114
146 147 146 144 140 140 140 146 137 122 104 92 94 107 124 130 130 128 116 110 102 104 121 127 122 114 107 110 112 112 108 102 97 88 84 97 114 114 121 125 117 114 112
146 141 150 150 150 145 143 144 135 120 108 100 102 106 116 120 129 134 123 112 109 105 115 120 122 122 116 113 114 112 107 104 102 98 99 101 109 113 124 118 114 115 115
145 147 161 149 149 144 142 137 126 118 106 94 91 99 100 138 135 129 123 117 114 109 116 116 113 114 118 117 113 112 109 103 96 90 117 118 115 114 108 107 108 112 111
147 154 155 148 144 141 135 132 122 112 111 107 104 89 74 123 132 127 120 121 119 118 118 118 116 113 113 115 111 111 106 105 93 112 102 114 122 116 118 121 116 117 119
151 151 154 148 145 141 137 122 119 107 106 106 106 96 93 111 122 122 120 121 120 124 122 119 119 112 110 110 114 113 109 96 109 108 113 125 128 120 120 125 120 117 114
154 154 160 152 147 140 134 121 124 114 100 101 107 107 104 111 118 121 120 119 121 121 120 123 119 110 104 110 112 115 115 113 101 112 111 124 111 109 111 119 118 114 116
159 158 158 157 154 147 140 127 117 108 105 103 111 114 118 116 118 120 122 124 125 121 122 117 111 103 118 107 105 117 121 112 112 99 103 113 107 108 107 107 113 110 111
161 166 165 171 153 148 140 134 124 124 110 109 108 116 116 124 125 120 124 131 127 133 127 120 109 105 137 131 116 108 108 109 117 105 114 123 110 109 107 108 110 107 113
168 168 171 171 160 163 153 152 118 115 95 88 102 105 109 123 108 133 144 136 130 138 135 126 116 110 133 156 134 115 106 106 136 144 125 119 113 109 108 105 110 116 116
168 168 165 175 168 163 168 180 162 127 109 97 144 125 115 160 155 138 160 160 143 147 143 129 130 122 148 157 124 121 117 129 121 120 130 129 125 117 111 106 111 119 117
174 175 180 177 166 168 179 156 209 146 178 222 227 138 158 174 164 183 205 134 133 114 133 121 122 170 257 174 163 121 121 143 145 127 139 133 125 121 116 113 115 123 123
177 183 173 185 169 182 191 174 197 217 177 240 201 250 189 189 166 195 194 167 158 185 139 125 197 227 217 152 131 116 133 139 186 160 156 135 147 120 116 111 117 130 139
174 181 183 185 180 192 172 190 216 181 215 238 277 270 184 231 174 187 194 195 191 149 185 190 170 206 111 177 133 154 153 138 158 176 157 152 172 203 188 124 127 143 145
173 182 184 188 192 180 198 178 202 220 232 237 233 250 248 216 210 219 198 194 202 186 171 206 188 182 182 145 146 170 115 139 184 171 182 198 189 210 209 199 188 173 172
178 171 186 188 193 200 191 207 212 221 244 242 210 228 222 230 237 221 219 201 211 215 196 183 193 180 159 166 169 176 173 168 159 183 165 193 189 195 154 213 218 193 185
200 191 181 196 198 207 215 224 204 230 231 210 229 247 246 236 219 207 202 207 194 201 197 226 192 201 191 187 189 180 202 174 163 163 190 205 182 190 202 186 182 184 184
194 187 190 195 209 207 221 213 218 224 234 227 211 233 228 259 231 212 219 222 240 194 192 211 211 184 180 182 185 183 184 196 175 206 164 216 189 207 151 170 180 188 187
188 194 204 207 202 202 206 220 219 220 222 252 270 246 234 258 242 226 230 246 217 196 189 194 213 184 208 208 201 190 196 206 204 258 184 185 178 212 196 151 195 194 197
192 200 206 206 193 198 204 216 218 223 231 233 237 248 243 255 242 241 247 239 225 217 204 197 211 207 206 211 195 199 211 212 226 204 197 202 195 190 234 201 170 210 205
193 199 205 197 195 209 210 211 217 224 228 237 243 243 249 238 231 224 215 227 227 240 230 224 202 212 206 198 209 212 209 223 210 210 196 205 185 191 201 206 210 199 213
195 202 204 216 208 208 201 216 221 221 228 226 238 247 251 247 254 236 248 227 236 244 238 229 210 205 198 189 201 203 220 217 189 200 200 186 198 197 205 206 200 202 228
199 202 209 215 216 216 214 212 221 225 228 230 233 239 244 247 237 248 257 250 240 229 233 235 220 211 204 204 197 214 225 297 165 162 186 204 202 205 209 214 206 209 209
206 210 214 218 220 216 221 217 218 225 228 227 230 230 250 242 258 231 240 243 242 233 246 241 234 215 213 210 202 207 220 237 240 192 199 205 207 204 217 215 217 232 208
214 217 220 221 224 222 218 229 218 221 226 229 231 238 236 250 257 262 235 244 242 232 239 229 241 221 207 197 211 214 206 212 216 224 242 215 201 217 212 210 224 225 226
Wind_Speed_850mb
33 36 34 34 32 29 27 25 23 20 19 17 16 15 16 17 18 20 22 20 15 17 20 23 27 31 33 36 38 40 41 41 41 41 41 42 42 42 43 44 34 35 38
41 36 37 34 32 31 28 26 21 17 15 14 13 11 13 14 14 19 20 20 21 19 21 26 31 32 32 33 35 36 38 37 36 35 37 38 42 39 39 43 30 35 33
41 39 37 32 30 28 26 24 19 14 15 12 9 9 10 12 16 19 19 22 24 24 27 33 34 34 33 32 34 34 36 42 47 50 46 28 29 31 30 28 29 32 30
40 36 32 31 28 26 25 23 20 16 14 10 9 10 12 14 18 19 22 27 28 27 36 37 33 30 31 31 32 35 38 47 39 36 26 25 24 26 25 26 28 28 29
39 34 31 30 28 28 26 22 20 15 13 9 10 12 11 13 21 25 28 31 30 32 37 36 33 34 33 30 30 33 40 41 33 36 26 24 22 23 24 26 25 29 29
40 36 34 33 30 28 24 21 19 16 15 11 14 17 17 25 33 30 30 30 30 32 34 34 32 30 29 29 30 34 40 39 32 21 26 28 22 26 26 24 22 22 23
43 29 33 34 30 29 24 22 19 18 17 16 19 23 32 39 39 34 32 28 28 27 30 30 30 29 27 26 28 32 38 34 23 26 24 17 19 21 21 20 20 20 21
39 33 31 34 28 28 24 20 18 18 17 18 21 24 31 36 36 33 30 27 25 26 27 28 26 25 26 24 24 27 39 34 22 23 26 18 20 20 19 20 20 20 18
35 37 30 29 29 26 26 20 19 15 19 17 19 22 25 28 29 28 29 26 24 26 25 24 24 22 26 25 18 24 34 39 20 26 18 20 23 21 18 19 20 19 18
37 37 33 27 25 21 19 18 16 15 17 17 16 17 19 20 20 22 21 21 22 23 23 22 23 24 28 32 26 23 35 34 22 28 21 18 22 21 20 19 17 17 19
37 39 36 27 33 21 17 13 11 12 14 14 14 21 20 17 17 14 22 15 17 20 21 17 16 20 17 34 32 34 29 21 18 21 20 22 23 21 19 18 16 16 16
53 40 37 33 31 23 20 7 11 1 8 5 7 13 3 8 16 25 12 13 13 14 14 11 11 18 12 33 34 35 33 17 21 17 15 24 24 22 19 16 16 14 15
43 38 37 30 29 22 22 12 7 9 6 6 6 13 8 12 12 12 10 10 8 11 13 9 8 8 7 16 22 33 28 22 22 27 17 21 22 22 20 18 16 13 13
47 37 43 28 23 25 17 14 9 9 8 5 5 13 20 17 15 14 11 16 15 10 14 8 7 5 9 10 16 19 20 23 17 14 17 17 14 20 20 15 13 12 12
41 39 35 31 30 22 21 12 12 9 6 7 7 12 9 16 16 15 18 14 14 19 7 9 7 4 9 19 32 25 24 22 17 15 21 21 12 15 16 14 10 10 12
41 38 37 32 32 25 22 16 12 10 8 9 9 12 14 18 20 22 21 18 16 13 21 10 13 9 14 14 23 14 14 18 14 16 12 19 14 14 20 15 9 8 12
47 37 33 28 25 31 27 19 15 13 10 15 9 16 15 15 16 21 25 23 17 15 19 9 16 13 15 12 18 16 17 12 20 14 18 11 16 12 10 12 14 17 17
57 40 33 27 29 26 23 22 14 14 17 17 10 13 9 12 12 14 15 18 23 22 18 25 17 17 16 18 18 19 17 20 19 18 14 12 10 8 12 9 15 21 21
47 49 39 38 28 33 17 18 19 17 19 16 13 12 18 12 14 13 13 19 14 26 29 22 24 23 18 20 19 17 17 20 14 22 22 9 17 6 11 9 16 20 23
46 50 47 40 37 18 25 28 22 19 16 16 14 14 12 18 18 14 14 12 16 21 28 22 26 22 18 19 17 20 16 17 11 7 22 18 13 11 14 10 10 17 22
62 56 46 46 35 38 31 26 25 21 19 18 18 16 17 14 13 14 10 12 12 15 18 31 24 23 21 14 18 19 18 16 15 17 15 16 22 18 11 22 11 17 13
61 55 52 45 36 33 26 25 24 21 18 18 18 20 22 20 14 12 14 16 7 17 15 23 29 30 27 25 19 17 20 27 24 19 22 22 19 19 20 18 26 22 14
66 57 52 43 39 37 35 27 24 23 25 18 22 22 25 24 18 20 19 17 18 9 16 21 29 30 27 32 25 16 14 16 29 24 23 21 24 22 28 28 23 25 20
63 57 55 48 43 41 39 35 34 29 25 22 20 20 20 24 22 24 21 20 20 19 15 17 23 28 29 33 23 22 24 8 9 21 24 26 22 24 23 27 27 31 24
60 60 57 54 51 48 45 45 39 38 30 26 25 20 26 23 25 25 29 24 24 20 17 14 18 21 26 23 22 24 23 13 5 8 15 26 29 26 26 29 26 28 28
58 59 58 56 58 54 52 48 53 43 37 33 26 26 22 22 23 28 29 31 26 25 20 21 21 25 31 31 27 21 24 22 19 16 16 20 25 25 27 30 27 27 27
Wind_Direction_850mb
150 145 137 143 148 151 151 142 135 126 108 97 99 105 111 117 118 111 104 99 107 108 108 115 109 101 97 101 103 106 105 104 105 106 106 106 104 101 97 86 100 106 103
150 146 140 138 139 143 142 148 137 124 106 96 96 107 122 133 134 119 111 106 106 109 122 123 117 109 104 105 106 110 109 107 104 104 106 109 109 106 107 123 130 111 114
146 147 146 144 140 140 140 146 137 122 104 92 94 107 124 130 130 128 116 110 102 104 121 127 122 114 107 110 112 112 108 102 97 88 84 97 114 114 121 125 117 114 112
146 141 150 150 150 145 143 144 135 120 108 100 102 106 116 120 129 134 123 112 109 105 115 120 122 122 116 113 114 112 107 104 102 98 99 101 109 113 124 118 114 115 115
145 147 161 149 149 144 142 137 126 118 106 94 91 99 100 138 135 129 123 117 114 109 116 116 113 114 118 117 113 112 109 103 96 90 117 118 115 114 108 107 108 112 111
147 154 155 148 144 141 135 132 122 112 111 107 104 89 74 123 132 127 120 121 119 118 118 118 116 113 113 115 111 111 106 105 93 112 102 114 122 116 118 121 116 117 119
151 151 154 148 145 141 137 122 119 107 106 106 106 96 93 111 122 122 120 121 120 124 122 119 119 112 110 110 114 113 109 96 109 108 113 125 128 120 120 125 120 117 114
154 154 160 152 147 140 134 121 124 114 100 101 107 107 104 111 118 121 120 119 121 121 120 123 119 110 104 110 112 115 115 113 101 112 111 124 111 109 111 119 118 114 116
159 158 158 157 154 147 140 127 117 108 105 103 111 114 118 116 118 120 122 124 125 121 122 117 111 103 118 107 105 117 121 112 112 99 103 113 107 108 107 107 113 110 111
161 166 165 171 153 148 140 134 124 124 110 109 108 116 116 124 125 120 124 131 127 133 127 120 109 105 137 131 116 108 108 109 117 105 114 123 110 109 107 108 110 107 113
168 168 171 171 160 163 153 152 118 115 95 88 102 105 109 123 108 133 144 136 130 138 135 126 116 110 133 156 134 115 106 106 136 144 125 119 113 109 108 105 110 116 116
168 168 165 175 168 163 168 180 162 127 109 97 144 125 115 160 155 138 160 160 143 147 143 129 130 122 148 157 124 121 117 129 121 120 130 129 125 117 111 106 111 119 117
174 175 180 177 166 168 179 156 209 146 178 222 227 138 158 174 164 183 205 134 133 114 133 121 122 170 257 174 163 121 121 143 145 127 139 133 125 121 116 113 115 123 123
177 183 173 185 169 182 191 174 197 217 177 240 201 250 189 189 166 195 194 167 158 185 139 125 197 227 217 152 131 116 133 139 186 160 156 135 147 120 116 111 117 130 139
174 181 183 185 180 192 172 190 216 181 215 238 277 270 184 231 174 187 194 195 191 149 185 190 170 206 111 177 133 154 153 138 158 176 157 152 172 203 188 124 127 143 145
173 182 184 188 192 180 198 178 202 220 232 237 233 250 248 216 210 219 198 194 202 186 171 206 188 182 182 145 146 170 115 139 184 171 182 198 189 210 209 199 188 173 172
178 171 186 188 193 200 191 207 212 221 244 242 210 228 222 230 237 221 219 201 211 215 196 183 193 180 159 166 169 176 173 168 159 183 165 193 189 195 154 213 218 193 185
200 191 181 196 198 207 215 224 204 230 231 210 229 247 246 236 219 207 202 207 194 201 197 226 192 201 191 187 189 180 202 174 163 163 190 205 182 190 202 186 182 184 184
194 187 190 195 209 207 221 213 218 224 234 227 211 233 228 259 231 212 219 222 240 194 192 211 211 184 180 182 185 183 184 196 175 206 164 216 189 207 151 170 180 188 187
188 194 204 207 202 202 206 220 219 220 222 252 270 246 234 258 242 226 230 246 217 196 189 194 213 184 208 208 201 190 196 206 204 258 184 185 178 212 196 151 195 194 197
192 200 206 206 193 198 204 216 218 223 231 233 237 248 243 255 242 241 247 239 225 217 204 197 211 207 206 211 195 199 211 212 226 204 197 202 195 190 234 201 170 210 205
193 199 205 197 195 209 210 211 217 224 228 237 243 243 249 238 231 224 215 227 227 240 230 224 202 212 206 198 209 212 209 223 210 210 196 205 185 191 201 206 210 199 213
195 202 204 216 208 208 201 216 221 221 228 226 238 247 251 247 254 236 248 227 236 244 238 229 210 205 198 189 201 203 220 217 189 200 200 186 198 197 205 206 200 202 228
199 202 209 215 216 216 214 212 221 225 228 230 233 239 244 247 237 248 257 250 240 229 233 235 220 211 204 204 197 214 225 297 165 162 186 204 202 205 209 214 206 209 209
206 210 214 218 220 216 221 217 218 225 228 227 230 230 250 242 258 231 240 243 242 233 246 241 234 215 213 210 202 207 220 237 240 192 199 205 207 204 217 215 217 232 208
214 217 220 221 224 222 218 229 218 221 226 229 231 238 236 250 257 262 235 244 242 232 239 229 241 221 207 197 211 214 206 212 216 224 242 215 201 217 212 210 224 225 226